Home   Weather   Yuma   Past weeks
Flag for USA

Past Weather in Yuma, Arizona, USA — Yesterday and Last 2 Weeks

Now
67 °F

Partly sunny.


Feels Like: 67 °F
Forecast: 68 / 53 °F
Wind: 8 mph from Northeast

Location: Yuma Marine Corps Air Station

Current Time: Apr 10, 2020 at 12:06:57 pm

Latest Report: Apr 10, 2020 at 10:57 am


Visibility: 7 mi

Pressure: 29.99 "Hg

Humidity: 44%

Dew Point: 44 °F

Location of YumaLocation

Past Weather in Yuma — Graph

°F

Yuma Temperature Yesterday

Maximum temperature yesterday: 69 °F (at 2:57 pm)
Minimum temperature yesterday: 50 °F (at 4:57 am)
Average temperature yesterday: 60 °F

High & Low Weather Summary for the Past Weeks

 TemperatureHumidityPressure
High88 °F (Apr 1, 3:57 pm)89% (Apr 8, 7:57 am)30.19 "Hg (Apr 8, 7:57 am)
Low48 °F (Mar 27, 4:57 am)12% (Apr 1, 4:57 pm)29.67 "Hg (Apr 1, 4:57 pm)
Average66 °F41%29.92 "Hg
* Reported Mar 26 9:57 am — Apr 10 9:57 am, Yuma. Weather by CustomWeather, © 2020

Note: Actual official high and low records may vary slightly from our data, if they occured in-between our weather recording intervals... More about our weather records

Yuma Weather History for the Previous 24 Hours

Scroll right to see more
 ConditionsComfort  
Time TempWeatherWind HumidityBarometerVisibility
9:57 am
Fri, Apr 10
67 °FScattered clouds.10 mph45%30.00 "Hg7 mi
8:57 am61 °FScattered clouds.No wind56%30.01 "Hg7 mi
7:57 am58 °FBroken clouds.6 mph67%30.01 "Hg7 mi
6:57 am59 °FBroken clouds.10 mph60%29.98 "Hg7 mi
5:57 am58 °FClear.7 mph60%29.98 "Hg10 mi
4:57 am58 °FPassing clouds.7 mph60%29.98 "Hg10 mi
3:57 am54 °FPassing clouds.6 mph74%29.99 "Hg10 mi
2:57 am57 °FClear.5 mph62%29.99 "Hg10 mi
1:57 am57 °FClear.5 mph64%30.00 "Hg10 mi
12:57 am57 °FClear.3 mph64%30.01 "Hg10 mi
11:57 pm
Thu, Apr 9
59 °FClear.6 mph56%30.01 "Hg10 mi
10:57 pm61 °FClear.6 mph52%30.02 "Hg10 mi
9:57 pm61 °FClear.6 mph48%30.02 "Hg10 mi
8:57 pm63 °FClear.3 mph41%30.01 "Hg10 mi
7:57 pm64 °FClear.6 mph35%30.01 "Hg10 mi
6:57 pm66 °FSunny.7 mph31%29.99 "Hg10 mi
5:57 pm68 °FSunny.6 mph28%29.99 "Hg10 mi
4:57 pm69 °FSunny.No wind29%30.00 "Hg10 mi
3:57 pm69 °FPassing clouds.8 mph31%30.01 "Hg7 mi
2:57 pm69 °FPassing clouds.12 mph32%30.04 "Hg7 mi
1:57 pm68 °FPassing clouds.6 mph32%30.06 "Hg7 mi
12:57 pm67 °FPassing clouds.7 mph33%30.09 "Hg7 mi
Weather by CustomWeather, © 2020

See weather overview

Advertising